Flag for Japan Weather past 2 weeks in Utsunomiya, Japan

Now
66 °F

Fog.


Feels Like: 66 °F
Forecast: 66 / 78 °F
Wind: 2 mph from West

Location: Mito

Current Time: Jul 2, 2015 at 4:20:36 AM

Latest Report: Jul 2, 2015 at 3:00 AM


Visibility: 3 mi

Pressure: 29.50 "Hg

Humidity: 98%

Dew point: 66 °F

Location of UtsunomiyaLocation

Historic Weather in Utsunomiya — Graph

°F

Utsunomiya temperature yesterday

Maximum temperature yesterday: 69 °F (at 6:00 PM)
Minimum temperature yesterday: 66 °F (at 6:00 AM)
Average temperature yesterday: 67 °F

Past Weeks' High & Low Weather Summary

 TemperatureHumidityPressure
High79 °F (Jun 24, 12:00 PM)98% (Jun 22, 4:00 AM)29.94 "Hg (Jun 22, 4:00 AM)
Low60 °F (Jun 30, 5:00 AM)51% (Jun 20, 2:00 PM)29.26 "Hg (Jul 1, 2:00 PM)
Average69 °F85%29.75 "Hg
* Reported Jun 17 3:00 AM — Jul 2 3:00 AM, Utsunomiya, Weather by CustomWeather, © 2015

Note: Actual official high and low records may vary slightly from our data, if they occured in-between our weather recording intervals... More about our weather records

Advertising

Utsunomiya weather history for previous 24 hours

 ConditionsComfort  
Time TempWeatherWind HumidityBarometerVisibility
3:00 AM
Thu, Jul 2
66 °FFog.2 mph98%29.50 "Hg3 mi
2:00 AM67 °FMild.2 mph98%29.47 "HgN/A
1:00 AM67 °FMild.1 mph96%29.44 "HgN/A
12:00 AM66 °FMild.2 mph98%29.44 "HgN/A
11:00 PM
Wed, Jul 1
67 °FMild.1 mph97%29.41 "HgN/A
10:00 PM67 °FMild.2 mph94%29.41 "HgN/A
9:00 PM67 °FOvercast.2 mph94%29.41 "Hg9 mi
8:00 PM68 °FMild.3 mph94%29.35 "HgN/A
7:00 PM69 °FMild.2 mph94%29.32 "HgN/A
6:00 PM69 °FMild.2 mph93%29.29 "HgN/A
5:00 PM68 °FMild.1 mph92%29.26 "HgN/A
4:00 PM67 °FMild.2 mph95%29.26 "HgN/A
3:00 PM67 °FLight rain. Overcast.3 mph96%29.26 "Hg6 mi
2:00 PM67 °FMild.2 mph96%29.26 "HgN/A
1:00 PM67 °FMild.6 mph97%29.29 "HgN/A
12:00 PM67 °FMild.5 mph97%29.29 "HgN/A
11:00 AM67 °FMild.6 mph95%29.35 "HgN/A
10:00 AM66 °FMild.6 mph96%29.38 "HgN/A
9:00 AM66 °FLight rain. Overcast.6 mph96%29.41 "Hg4 mi
8:00 AM66 °FMild.5 mph97%29.44 "HgN/A
7:00 AM66 °FMild.3 mph97%29.44 "HgN/A
6:00 AM66 °FMild.5 mph97%29.47 "HgN/A
5:00 AM67 °FMild.3 mph94%29.47 "HgN/A
4:00 AM67 °FMild.5 mph96%29.47 "HgN/A
Weather by CustomWeather, © 2015

See weather overviewHow to use our weather pages